When you browse on this site, cookies collect data to enhance your experience and personalize the content and advertising you see.
Visit our Privacy Policy to learn more. By continuing to use the site, you agree to this use of cookies and data.
  • In Czech Republic
  • List of Countries
  • For 7 days
  • Water Temperature
  • Satellite Maps
  • Weather Map
  • Weather Widgets
  • user-avatar
    Login

    Hourly Weather Nicosia

    Today, 23 March, Saturday

    Time Temperature Precipitation Wind Pressure Humidity
    00:00 +14°C° 0 mm 3 mps 748 mmHg 43%
    01:00 +13°C° 0 mm 4 mps 747 mmHg 46%
    02:00 +13°C° 0 mm 4 mps 747 mmHg 49%
    03:00 +13°C° 0 mm 4 mps 747 mmHg 49%
    04:00 +12°C° 0 mm 5 mps 747 mmHg 50%
    05:00 +12°C° 0 mm 5 mps 747 mmHg 50%
    06:00 +13°C° 0 mm 5 mps 747 mmHg 47%
    07:00 +14°C° 0 mm 5 mps 746 mmHg 43%
    08:00 +15°C° 0 mm 5 mps 746 mmHg 40%
    09:00 +18°C° 0 mm 4 mps 746 mmHg 35%
    10:00 +20°C° 0 mm 3 mps 746 mmHg 29%
    11:00 +21°C° 0 mm 2 mps 746 mmHg 24%
    12:00 +21°C° 0 mm 3 mps 746 mmHg 24%
    13:00 +22°C° 0 mm 4 mps 745 mmHg 25%
    14:00 +22°C° 0 mm 4 mps 745 mmHg 26%
    15:00 +21°C° 0 mm 4 mps 745 mmHg 28%
    16:00 +20°C° 0 mm 4 mps 744 mmHg 31%
    17:00 +19°C° 0 mm 3 mps 744 mmHg 34%
    18:00 +18°C° 0 mm 3 mps 744 mmHg 34%
    19:00 +17°C° 0 mm 4 mps 744 mmHg 35%
    20:00 +15°C° 0 mm 4 mps 743 mmHg 35%
    21:00 +15°C° 0 mm 4 mps 743 mmHg 36%
    22:00 +15°C° 0 mm 4 mps 743 mmHg 37%
    23:00 +14°C° 0 mm 4 mps 742 mmHg 38%

    Tomorrow, 24 March, Sunday

    Time Temperature Precipitation Wind Pressure Humidity
    00:00 +14°C° 0 mm 4 mps 742 mmHg 42%
    01:00 +13°C° 0 mm 5 mps 742 mmHg 46%
    02:00 +11°C° 0 mm 6 mps 741 mmHg 50%
    03:00 +11°C° 0 mm 8 mps 741 mmHg 49%
    04:00 +9°C° 0 mm 10 mps 741 mmHg 48%
    05:00 +8°C° 0 mm 12 mps 741 mmHg 48%
    06:00 +8°C° 0 mm 13 mps 741 mmHg 45%
    07:00 +8°C° 0 mm 13 mps 741 mmHg 41%
    08:00 +8°C° 0 mm 14 mps 741 mmHg 38%
    09:00 +9°C° 0 mm 13 mps 741 mmHg 34%
    10:00 +10°C° 0 mm 13 mps 741 mmHg 30%
    11:00 +12°C° 0 mm 12 mps 741 mmHg 26%
    12:00 +12°C° 0 mm 12 mps 740 mmHg 25%
    13:00 +13°C° 0 mm 11 mps 740 mmHg 24%
    14:00 +13°C° 0 mm 11 mps 740 mmHg 23%
    15:00 +13°C° 0 mm 11 mps 739 mmHg 23%
    16:00 +12°C° 0 mm 12 mps 739 mmHg 24%
    17:00 +10°C° 0 mm 12 mps 739 mmHg 25%
    18:00 +9°C° 0 mm 12 mps 739 mmHg 27%
    19:00 +8°C° 0 mm 12 mps 740 mmHg 29%
    20:00 +7°C° 0 mm 11 mps 740 mmHg 31%
    21:00 +6°C° 0 mm 11 mps 740 mmHg 32%
    22:00 +6°C° 0 mm 11 mps 740 mmHg 33%
    23:00 +6°C° 0 mm 11 mps 740 mmHg 34%

    Day after tomorrow, 25 March, Monday

    Time Temperature Precipitation Wind Pressure Humidity
    00:00 +6°C° 0 mm 11 mps 740 mmHg 35%
    01:00 +4°C° 0 mm 11 mps 740 mmHg 36%
    02:00 +4°C° 0 mm 11 mps 740 mmHg 37%
    03:00 +3°C° 0 mm 11 mps 740 mmHg 41%
    04:00 +3°C° 0 mm 11 mps 740 mmHg 46%
    05:00 +2°C° 0 mm 11 mps 739 mmHg 50%
    06:00 +3°C° 0 mm 11 mps 740 mmHg 48%
    07:00 +4°C° 0 mm 11 mps 740 mmHg 47%
    08:00 +6°C° 0 mm 10 mps 740 mmHg 45%
    09:00 +7°C° 0 mm 9 mps 740 mmHg 42%
    10:00 +10°C° 0 mm 7 mps 740 mmHg 39%
    11:00 +13°C° 0 mm 5 mps 740 mmHg 36%
    12:00 +14°C° 0 mm 5 mps 740 mmHg 33%
    13:00 +15°C° 0 mm 5 mps 739 mmHg 31%
    14:00 +16°C° 0 mm 5 mps 739 mmHg 28%
    15:00 +15°C° 0 mm 5 mps 739 mmHg 29%
    16:00 +15°C° 0 mm 5 mps 739 mmHg 29%
    17:00 +15°C° 0 mm 5 mps 739 mmHg 29%
    18:00 +13°C° 0 mm 5 mps 740 mmHg 31%
    19:00 +12°C° 0 mm 4 mps 740 mmHg 33%
    20:00 +11°C° 0 mm 4 mps 741 mmHg 34%
    21:00 +11°C° 0 mm 4 mps 741 mmHg 36%
    22:00 +10°C° 0 mm 4 mps 741 mmHg 37%
    23:00 +10°C° 0 mm 4 mps 741 mmHg 38%

    26 March, Tuesday

    Time Temperature Precipitation Wind Pressure Humidity
    00:00 +8°C° 0 mm 4 mps 741 mmHg 39%
    01:00 +8°C° 0 mm 4 mps 741 mmHg 40%
    02:00 +8°C° 0 mm 4 mps 741 mmHg 40%
    03:00 +8°C° 0 mm 4 mps 742 mmHg 41%
    04:00 +8°C° 0 mm 3 mps 742 mmHg 41%
    05:00 +8°C° 0 mm 3 mps 742 mmHg 41%
    06:00 +10°C° 0 mm 3 mps 742 mmHg 37%
    07:00 +11°C° 0 mm 3 mps 742 mmHg 34%
    08:00 +14°C° 0 mm 2 mps 743 mmHg 30%
    09:00 +14°C° 0 mm 3 mps 743 mmHg 28%
    10:00 +17°C° 0 mm 3 mps 743 mmHg 26%
    11:00 +19°C° 0 mm 3 mps 743 mmHg 24%
    12:00 +19°C° 0 mm 5 mps 743 mmHg 27%
    13:00 +18°C° 0 mm 7 mps 742 mmHg 29%
    14:00 +18°C° 0 mm 8 mps 742 mmHg 32%
    15:00 +18°C° 0 mm 8 mps 742 mmHg 34%
    16:00 +17°C° 0 mm 9 mps 742 mmHg 36%
    17:00 +17°C° 0 mm 9 mps 743 mmHg 38%
    18:00 +15°C° 0 mm 8 mps 743 mmHg 46%
    19:00 +13°C° 0 mm 8 mps 744 mmHg 55%
    20:00 +11°C° 0 mm 8 mps 744 mmHg 64%
    21:00 +11°C° 0 mm 7 mps 744 mmHg 67%
    22:00 +11°C° 0 mm 7 mps 744 mmHg 70%
    23:00 +10°C° 0 mm 6 mps 744 mmHg 73%

    27 March, Wednesday

    Time Temperature Precipitation Wind Pressure Humidity
    00:00 +10°C° 0 mm 5 mps 744 mmHg 75%
    01:00 +10°C° 0 mm 5 mps 744 mmHg 77%
    02:00 +11°C° 0 mm 4 mps 744 mmHg 79%
    03:00 +10°C° 0 mm 4 mps 744 mmHg 81%
    04:00 +10°C° 0 mm 3 mps 744 mmHg 83%
    05:00 +10°C° 0 mm 2 mps 745 mmHg 85%
    06:00 +12°C° 0 mm 2 mps 745 mmHg 81%
    07:00 +13°C° 0 mm 1 mps 745 mmHg 77%
    08:00 +15°C° 0 mm 1 mps 745 mmHg 73%
    09:00 +16°C° 0 mm 1 mps 745 mmHg 68%
    10:00 +18°C° 0 mm 1 mps 746 mmHg 64%
    11:00 +18°C° 0 mm 2 mps 746 mmHg 59%
    12:00 +18°C° 0 mm 2 mps 745 mmHg 60%
    13:00 +18°C° 0 mm 2 mps 745 mmHg 60%
    14:00 +18°C° 0 mm 2 mps 745 mmHg 60%
    15:00 +17°C° 0 mm 2 mps 745 mmHg 62%
    16:00 +17°C° 0 mm 2 mps 745 mmHg 64%
    17:00 +16°C° 0 mm 2 mps 745 mmHg 66%
    18:00 +15°C° 0.1 mm 2 mps 745 mmHg 73%
    19:00 +14°C° 0.1 mm 2 mps 745 mmHg 81%
    20:00 +13°C° 0.1 mm 1 mps 746 mmHg 89%
    21:00 +13°C° 0.3 mm 2 mps 745 mmHg 89%
    22:00 +14°C° 0.3 mm 2 mps 745 mmHg 88%
    23:00 +14°C° 0.3 mm 2 mps 745 mmHg 88%

    28 March, Thursday

    Time Temperature Precipitation Wind Pressure Humidity
    00:00 +13°C° 0.2 mm 2 mps 745 mmHg 89%
    01:00 +13°C° 0.2 mm 1 mps 745 mmHg 90%
    02:00 +13°C° 0.2 mm 1 mps 744 mmHg 91%
    03:00 +13°C° 0.5 mm 2 mps 744 mmHg 91%
    04:00 +12°C° 0.5 mm 2 mps 744 mmHg 91%
    05:00 +11°C° 0.5 mm 3 mps 744 mmHg 91%
    06:00 +12°C° 0.3 mm 4 mps 744 mmHg 88%
    07:00 +12°C° 0.3 mm 4 mps 745 mmHg 85%
    08:00 +12°C° 0.3 mm 5 mps 745 mmHg 82%
    09:00 +13°C° 0.2 mm 5 mps 745 mmHg 75%
    10:00 +14°C° 0.2 mm 5 mps 745 mmHg 68%
    11:00 +15°C° 0.2 mm 5 mps 745 mmHg 61%
    12:00 +16°C° 0 mm 5 mps 744 mmHg 58%
    13:00 +16°C° 0 mm 5 mps 744 mmHg 56%
    14:00 +17°C° 0 mm 5 mps 744 mmHg 54%
    15:00 +17°C° 0.1 mm 4 mps 744 mmHg 58%
    16:00 +17°C° 0.1 mm 3 mps 743 mmHg 62%
    17:00 +16°C° 0.1 mm 2 mps 743 mmHg 65%
    18:00 +16°C° 0 mm 2 mps 744 mmHg 70%
    19:00 +15°C° 0 mm 1 mps 744 mmHg 74%
    20:00 +15°C° 0 mm 1 mps 744 mmHg 78%
    21:00 +14°C° 0 mm 1 mps 744 mmHg 80%
    22:00 +14°C° 0 mm 2 mps 744 mmHg 81%
    23:00 +13°C° 0 mm 2 mps 744 mmHg 83%
    Show more